Wichita Jabara, KS

11:44 AM CDT on August 21, 2017 (GMT -0500)
Col Jabara

Weather History for KAAO - March, 2014

Change the Weather History Date:

Thursday, March 27, 2014

  Actual Average (KIAB) Record (KIAB)
Temperature  
Mean Temperature 58 °F -  
Max Temperature 73 °F 61 °F 76 °F (2012)
Min Temperature 41 °F 40 °F 26 °F (2009)
Degree Days  
Heating Degree Days 8    
Growing Degree Days 8 (Base 50)    
Moisture  
Dew Point 44 °F    
Average Humidity 64    
Maximum Humidity 86    
Minimum Humidity 27    
Precipitation  
Precipitation 0.00 in - - ()
Sea Level Pressure  
Sea Level Pressure 29.56 in    
Wind  
Wind Speed 26 mph (WSW)    
Max Wind Speed 32 mph    
Max Gust Speed 46 mph    
Visibility 10 miles    
Events      
Averages and records for this station are not official NWS values.
T = Trace of Precipitation, MM = Missing Value Source: NWS Daily Summary

Daily Weather History Graph

Daily Weather History Graph

Search for Another Location

Airport or City:

Trip Planner

Search our weather history database for the weather conditions in past years. The results will help you decide how hot, cold, wet, or windy it might be!

Date:

Astronomy

Mar. 27, 2014 Rise Set
Actual Time 7:21 AM CDT 7:47 PM CDT
Civil Twilight 6:55 AM CDT 8:13 PM CDT
Nautical Twilight 6:24 AM CDT 8:44 PM CDT
Astronomical Twilight 5:53 AM CDT 9:16 PM CDT
Moon 5:10 AM CDT (3/27) 4:39 PM CDT (3/27)
Length of Visible Light 13h 18m
Length of Day
12h 25m
Waning Crescent, 13% of the Moon is Illuminated
Mar 27
Waning Crescent
Mar 30
New
Apr 7
First Quarter
Apr 15
Full
Apr 22
Last Quarter

Hourly Weather History & Observations

Time (CDT) Temp. Windchill Dew Point Humidity Pressure Visibility Wind Dir Wind Speed Gust Speed Precip Events Conditions
12:54 AM 48.9 °F - 44.1 °F 83% 29.57 in 10.0 mi South 27.6 mph 42.6 mph N/A   Overcast
1:54 AM 50.0 °F - 46.0 °F 86% 29.55 in 10.0 mi South 27.6 mph 36.8 mph N/A   Overcast
2:54 AM 51.1 °F - 46.9 °F 86% 29.53 in 10.0 mi South 26.5 mph 34.5 mph N/A   Overcast
3:54 AM 54.0 °F - 48.9 °F 83% 29.50 in 10.0 mi South 25.3 mph 36.8 mph N/A   Overcast
4:54 AM 55.9 °F - 50.0 °F 80% 29.47 in 10.0 mi South 29.9 mph 42.6 mph N/A   Overcast
5:54 AM 57.0 °F - 51.1 °F 81% 29.46 in 10.0 mi South 28.8 mph 42.6 mph N/A   Overcast
6:54 AM 57.0 °F - 52.0 °F 83% 29.46 in 10.0 mi South 32.2 mph 40.3 mph N/A   Overcast
7:54 AM 57.0 °F - 52.0 °F 83% 29.44 in 10.0 mi South 25.3 mph 43.7 mph N/A   Overcast
8:54 AM 57.9 °F - 53.1 °F 84% 29.43 in 10.0 mi South 31.1 mph 46.0 mph N/A   Mostly Cloudy
9:54 AM 61.0 °F - 54.0 °F 78% 29.41 in 10.0 mi SSW 32.2 mph 42.6 mph N/A   Mostly Cloudy
10:36 AM 64.9 °F - 54.0 °F 68% 29.40 in 10.0 mi SSW 32.2 mph 41.4 mph N/A   Scattered Clouds
10:54 AM 64.9 °F - 54.0 °F 68% 29.41 in 10.0 mi SSW 26.5 mph 40.3 mph N/A   Mostly Cloudy
11:54 AM 68.0 °F - 44.1 °F 42% 29.42 in 10.0 mi SW 27.6 mph 41.4 mph N/A   Mostly Cloudy
12:54 PM 72.0 °F - 36.0 °F 27% 29.42 in 10.0 mi WSW 25.3 mph 34.5 mph N/A   Clear
1:54 PM 70.0 °F - 46.0 °F 42% 29.48 in 10.0 mi West 24.2 mph 31.1 mph N/A   Scattered Clouds
2:54 PM 66.9 °F - 45.0 °F 45% 29.52 in 10.0 mi WNW 18.4 mph 33.4 mph N/A   Clear
3:54 PM 66.0 °F - 41.0 °F 40% 29.55 in 10.0 mi WNW 23.0 mph 29.9 mph N/A   Clear
4:54 PM 64.9 °F - 37.9 °F 37% 29.57 in 10.0 mi WNW 23.0 mph 29.9 mph N/A   Clear
5:54 PM 63.0 °F - 37.9 °F 40% 29.62 in 10.0 mi NW 18.4 mph 24.2 mph N/A   Clear
6:54 PM 59.0 °F - 37.0 °F 44% 29.68 in 10.0 mi NNW 17.3 mph - N/A   Clear
7:54 PM 53.1 °F - 36.0 °F 52% 29.74 in 10.0 mi NNW 16.1 mph - N/A   Clear
8:54 PM 48.0 °F - 35.1 °F 61% 29.79 in 10.0 mi North 13.8 mph - N/A   Clear
9:54 PM 45.0 °F 37.9 °F 33.1 °F 63% 29.83 in 10.0 mi North 16.1 mph - N/A   Clear
10:54 PM 43.0 °F 35.1 °F 32.0 °F 65% 29.85 in 10.0 mi North 17.3 mph 24.2 mph N/A   Clear
11:54 PM 41.0 °F 32.5 °F 30.9 °F 67% 29.85 in 10.0 mi North 17.3 mph - N/A   Clear